Vorticity
2 2 1 2 2 2 2 2 2 3 3 3 4 4 5 5 5 5 6 7 8 16 5 1 9 13 11 7 5 6 6 5 3 3 3 1 1 1 1 2 1 2 2
3 3 2 2 2 2 2 3 3 3 3 3 3 3 3 3 3 4 4 5 5 5 2 8 5 9 8 11 12 12 8 5 5 8 6 5 4 3 3 2 2 1 2
6 6 6 5 4 4 3 3 4 4 4 4 4 4 4 3 3 3 4 4 4 5 6 6 0 1 6 9 1 11 7 10 12 8 8 5 7 7 5 6 5 4 2
5 5 4 4 4 4 3 3 3 3 2 3 4 4 4 4 4 4 3 3 3 4 4 4 6 9 2 1 2 8 14 9 10 9 8 11 8 7 6 7 6 5 5
5 5 4 4 3 2 2 3 3 2 2 2 1 1 2 3 4 4 5 4 3 2 2 3 3 4 5 8 7 2 -2 -0 9 3 1 14 5 8 14 10 8 6 6
3 3 3 2 2 3 3 3 3 4 4 4 4 4 4 4 2 2 3 5 5 5 4 3 2 2 3 4 4 7 7 4 2 1 2 6 -1 9 10 11 5 9 16
3 3 3 3 3 3 3 3 3 4 3 4 4 4 4 3 5 4 4 2 3 4 5 5 4 4 3 2 3 3 5 7 7 8 3 1 4 5 6 8 13 10 8
4 4 4 4 4 4 4 4 4 4 4 4 4 3 4 3 4 2 3 4 3 4 3 4 5 5 5 5 5 3 3 2 4 5 7 9 3 -0 -4 1 -6 3 5
6 5 5 5 4 4 4 4 4 3 3 4 6 5 4 3 1 3 3 4 2 3 2 2 4 4 5 6 5 4 4 4 4 3 3 4 5 7 8 4 6 2 1
10 9 9 10 11 11 11 11 11 10 10 10 10 10 9 9 9 7 8 8 8 8 7 4 5 2 3 5 5 5 6 5 5 4 4 4 3 4 3 5 7 8 6
6 5 5 5 5 5 5 5 6 8 7 6 6 6 5 6 5 5 6 8 10 10 8 7 8 7 5 3 3 4 7 7 6 6 6 5 5 5 4 4 3 4 7
6 5 6 6 6 7 8 9 9 9 8 7 7 6 6 6 6 7 8 7 6 8 8 9 9 9 9 10 7 3 -0 -1 6 8 6 7 7 5 4 5 4 4 2
6 6 7 8 8 8 7 7 6 5 5 6 6 6 7 6 7 6 8 7 7 6 6 6 7 9 10 11 10 10 6 7 6 2 3 8 6 7 8 7 4 4 4
8 8 8 8 8 8 7 7 7 7 7 8 8 8 8 8 7 6 6 8 8 9 4 5 8 7 5 8 9 9 12 12 8 5 5 5 4 7 8 6 8 7 6
6 6 5 6 7 7 6 7 8 8 8 8 9 10 10 10 11 12 11 10 11 10 6 3 4 6 9 10 8 9 7 7 8 11 9 5 7 7 4 6 8 7 7
12 12 12 11 11 11 11 11 11 11 12 11 11 10 9 9 10 10 9 7 8 11 12 16 16 13 10 10 14 14 9 7 10 11 10 7 5 3 7 11 4 5 7
8 7 7 8 7 8 8 8 8 7 7 6 4 3 3 1 0 4 6 7 9 9 6 7 9 7 1 4 11 13 12 14 13 10 12 11 12 9 5 2 4 14 6
6 8 7 7 9 9 8 8 7 6 6 5 5 5 7 9 11 13 10 8 7 8 11 15 7 5 4 7 9 8 4 6 8 6 10 14 11 11 11 9 6 3 4
6 6 6 6 7 7 6 6 5 4 5 8 10 11 11 9 8 8 8 7 7 7 9 9 7 7 7 6 5 6 6 5 4 6 7 8 5 8 13 14 13 9 6
3 6 6 7 8 8 9 8 9 9 9 9 9 8 7 7 7 8 9 10 10 10 9 9 9 8 8 10 13 11 10 10 7 7 8 3 7 10 4 5 11 13 10
4 5 7 8 8 7 6 6 6 6 5 5 6 8 9 12 15 14 11 12 16 17 17 17 16 18 18 19 19 16 21 18 13 15 16 13 9 12 12 12 6 5 11
7 7 11 7 6 5 5 6 7 8 10 12 11 16 20 21 23 23 26 29 27 24 24 26 26 27 28 26 25 23 21 20 25 31 24 18 20 14 16 18 17 14 9
9 7 5 6 7 8 10 13 13 14 15 19 25 25 29 25 25 19 20 20 19 16 18 18 20 20 18 20 18 21 23 22 23 20 18 29 28 29 27 26 27 28 20
7 8 10 13 14 14 16 19 23 24 27 31 30 25 19 13 11 11 12 11 11 12 13 12 15 16 17 18 19 20 19 18 18 18 20 23 15 16 17 23 22 18 26
13 15 15 18 22 23 22 27 28 28 24 19 13 9 6 5 4 5 8 12 12 13 13 13 13 15 16 18 19 19 18 18 18 19 18 21 19 24 15 15 15 17 25
19 22 24 25 22 24 28 24 19 16 12 8 6 5 4 5 5 7 11 12 11 13 15 18 19 18 17 17 17 17 17 17 17 19 16 18 12 11 10 12 15 16 18
Height
5801 5802 5804 5805 5806 5808 5809 5811 5812 5814 5814 5815 5817 5817 5818 5819 5820 5822 5824 5824 5826 5827 5829 5829 5830 5832 5832 5834 5836 5838 5839 5841 5843 5845 5846 5847 5849 5850 5851 5853 5854 5855 5856
5795 5796 5797 5799 5800 5801 5803 5804 5806 5807 5808 5809 5810 5811 5812 5813 5814 5815 5817 5818 5819 5820 5821 5822 5824 5826 5826 5826 5828 5830 5830 5833 5836 5837 5838 5840 5841 5843 5844 5846 5847 5849 5851
5788 5790 5791 5792 5793 5794 5795 5796 5798 5800 5801 5802 5803 5804 5805 5806 5808 5809 5810 5810 5812 5813 5814 5815 5816 5817 5818 5817 5821 5823 5823 5825 5827 5827 5829 5830 5832 5835 5836 5838 5840 5841 5843
5779 5781 5782 5784 5785 5786 5787 5788 5789 5790 5791 5793 5794 5796 5797 5798 5800 5801 5802 5802 5804 5804 5806 5806 5808 5809 5810 5810 5812 5815 5815 5816 5817 5819 5820 5821 5823 5825 5827 5828 5830 5832 5835
5770 5771 5773 5774 5775 5776 5777 5778 5779 5780 5781 5782 5783 5785 5786 5787 5789 5791 5793 5793 5794 5795 5796 5797 5797 5799 5801 5802 5804 5806 5806 5806 5808 5809 5811 5812 5814 5815 5817 5819 5820 5823 5824
5759 5760 5762 5763 5764 5765 5766 5767 5768 5768 5769 5770 5771 5772 5774 5775 5776 5777 5779 5781 5783 5784 5785 5786 5786 5788 5789 5791 5793 5796 5796 5797 5798 5799 5801 5802 5804 5806 5807 5810 5810 5813 5814
5748 5749 5749 5750 5751 5752 5753 5754 5755 5755 5756 5757 5758 5759 5760 5762 5762 5764 5765 5767 5768 5770 5772 5772 5774 5775 5776 5777 5780 5784 5783 5785 5786 5789 5790 5791 5793 5795 5797 5798 5801 5802 5805
5734 5735 5736 5737 5738 5738 5739 5739 5740 5742 5742 5743 5744 5744 5745 5748 5747 5749 5751 5751 5754 5754 5756 5758 5759 5760 5762 5764 5767 5769 5769 5771 5773 5776 5778 5779 5781 5784 5785 5787 5789 5792 5795
5721 5721 5722 5722 5723 5723 5724 5724 5725 5726 5728 5728 5729 5729 5729 5730 5732 5733 5736 5734 5738 5737 5739 5741 5742 5744 5747 5748 5751 5753 5754 5756 5758 5761 5764 5765 5767 5770 5773 5775 5777 5780 5782
5705 5705 5706 5707 5707 5708 5708 5708 5709 5709 5710 5711 5712 5712 5712 5713 5715 5717 5717 5718 5720 5721 5721 5725 5722 5725 5729 5730 5734 5737 5736 5740 5742 5744 5747 5750 5753 5755 5757 5760 5763 5765 5768
5688 5689 5689 5689 5690 5690 5690 5691 5691 5691 5692 5692 5693 5693 5694 5694 5694 5697 5700 5701 5701 5702 5704 5706 5704 5705 5708 5710 5713 5717 5718 5721 5723 5726 5729 5732 5735 5738 5741 5744 5747 5750 5754
5671 5671 5671 5672 5672 5672 5672 5672 5672 5672 5672 5673 5673 5673 5673 5674 5674 5676 5679 5680 5683 5686 5684 5684 5685 5686 5688 5688 5692 5694 5697 5700 5703 5706 5709 5713 5716 5719 5723 5727 5730 5734 5737
5653 5652 5653 5654 5654 5654 5654 5653 5653 5653 5653 5653 5652 5652 5653 5653 5653 5654 5656 5658 5659 5662 5664 5667 5664 5665 5667 5667 5671 5670 5674 5676 5680 5684 5687 5691 5695 5699 5703 5707 5711 5715 5719
5637 5636 5636 5636 5636 5635 5635 5634 5633 5632 5632 5632 5631 5632 5632 5631 5630 5631 5631 5633 5636 5637 5640 5640 5642 5643 5644 5646 5647 5647 5651 5652 5655 5658 5662 5667 5672 5676 5681 5685 5689 5694 5698
5618 5618 5617 5616 5616 5615 5614 5613 5612 5611 5611 5610 5610 5610 5609 5608 5607 5606 5606 5607 5608 5612 5616 5617 5615 5615 5618 5621 5624 5623 5625 5627 5630 5632 5636 5640 5645 5651 5656 5661 5666 5671 5676
5598 5597 5597 5595 5594 5593 5592 5591 5590 5589 5589 5588 5587 5586 5585 5585 5584 5583 5582 5582 5582 5583 5588 5589 5590 5591 5591 5594 5596 5597 5599 5600 5603 5605 5609 5613 5617 5622 5628 5635 5641 5646 5651
5579 5577 5576 5574 5573 5571 5569 5569 5567 5566 5565 5564 5563 5563 5563 5561 5560 5559 5557 5556 5556 5555 5559 5564 5562 5563 5565 5566 5569 5569 5571 5573 5575 5577 5580 5584 5588 5593 5599 5606 5612 5619 5625
5558 5556 5554 5552 5551 5549 5547 5545 5544 5542 5541 5540 5539 5539 5538 5535 5535 5533 5530 5529 5529 5527 5528 5534 5535 5536 5536 5536 5538 5541 5543 5544 5546 5549 5550 5553 5557 5563 5568 5575 5582 5589 5595
5536 5534 5532 5531 5529 5526 5523 5520 5519 5517 5516 5515 5513 5512 5511 5508 5508 5505 5503 5502 5500 5500 5499 5501 5506 5505 5506 5505 5507 5509 5510 5512 5515 5519 5520 5522 5527 5531 5536 5543 5550 5557 5564
5513 5510 5508 5506 5504 5501 5498 5495 5493 5491 5490 5489 5487 5486 5484 5482 5480 5477 5474 5472 5470 5469 5468 5467 5471 5474 5473 5474 5473 5473 5474 5475 5482 5483 5484 5490 5495 5500 5505 5511 5519 5525 5530
5487 5484 5483 5480 5478 5475 5472 5468 5466 5464 5463 5462 5460 5457 5455 5452 5449 5445 5442 5441 5438 5436 5434 5433 5435 5437 5440 5440 5437 5435 5434 5437 5445 5444 5445 5452 5463 5467 5472 5475 5480 5487 5495
5460 5458 5456 5454 5452 5450 5446 5440 5436 5437 5435 5434 5432 5429 5427 5423 5419 5415 5412 5409 5407 5406 5405 5401 5401 5401 5405 5405 5402 5397 5398 5400 5408 5404 5400 5420 5419 5429 5436 5438 5443 5450 5458
5432 5430 5428 5426 5424 5422 5417 5411 5408 5407 5408 5407 5405 5403 5400 5397 5393 5389 5386 5384 5382 5380 5376 5373 5375 5375 5375 5373 5369 5367 5367 5364 5369 5370 5367 5384 5382 5390 5396 5399 5405 5411 5420
5404 5401 5400 5397 5395 5393 5388 5384 5380 5380 5381 5380 5380 5379 5378 5376 5372 5366 5363 5362 5361 5359 5356 5351 5348 5348 5347 5348 5342 5340 5339 5337 5340 5340 5343 5347 5353 5358 5359 5363 5372 5379 5383
5375 5373 5371 5369 5367 5366 5361 5358 5355 5355 5357 5358 5358 5357 5356 5355 5352 5345 5340 5339 5339 5338 5334 5327 5323 5321 5322 5322 5317 5313 5315 5312 5315 5320 5323 5317 5324 5322 5327 5334 5343 5346 5350
5347 5345 5344 5342 5341 5341 5338 5335 5333 5335 5338 5338 5338 5337 5335 5332 5329 5325 5319 5315 5314 5317 5309 5305 5300 5297 5297 5298 5296 5294 5293 5289 5291 5296 5303 5293 5296 5292 5298 5310 5312 5317 5317